Stations météo

réclame
Mon MeteoGroup
Ueckermünde, Allemagne (10193): Température de l'air & dewpoint: 16.10.2019 11:00:00 - 22.10.2019 11:00:00 (CEST)Ueckermünde, Allemagne (10193): Température de l'air 5cm & Température de l'air -5cm: 16.10.2019 11:00:00 - 22.10.2019 11:00:00 (CEST)Ueckermünde, Allemagne (10193): Température de l'air -20cm & Température de l'air -100cm: 16.10.2019 11:00:00 - 22.10.2019 11:00:00 (CEST)Ueckermünde, Allemagne (10193): Vitesse du vent & gusts: 16.10.2019 11:00:00 - 22.10.2019 11:00:00 (CEST)Ueckermünde, Allemagne (10193): Direction du vent: 16.10.2019 11:00:00 - 22.10.2019 11:00:00 (CEST)Ueckermünde, Allemagne (10193): reduced air pressure: 16.10.2019 11:00:00 - 22.10.2019 11:00:00 (CEST)Ueckermünde, Allemagne (10193): visibility: 16.10.2019 11:00:00 - 22.10.2019 11:00:00 (CEST)Ueckermünde, Allemagne (10193): Ensoleillement: 16.10.2019 11:00:00 - 22.10.2019 11:00:00 (CEST)Ueckermünde, Allemagne (10193): Quantités de précipitations: 16.10.2019 11:00:00 - 22.10.2019 11:00:00 (CEST)
Date & Time tt [°C] td [°C] tt 5cm [°C] tt -5cm [°C] tt -20cm [°C] tt -100cm [°C] ff [km/h] ff [knt] fx [km/h] fx [knt] dd ppp [hPa] vv [km] sd [min] rr [mm]
22.10.2019 11:00:00 - - - - - - - - - - - - - - -
22.10.2019 10:00:00 12,7 10,5 12,0 11,6 12,0 13,2 9 5 18 10 SW 1022,6 12 58 0,0
22.10.2019 09:00:00 11,7 11,0 10,6 10,5 12,1 13,2 9 5 12 7 SW 1022,4 7 13 0,0
22.10.2019 08:00:00 11,2 10,7 10,2 10,5 12,2 13,2 8 4 13 7 SW 1022,1 6 0 0,0
22.10.2019 07:00:00 11,7 11,5 11,2 10,6 12,2 13,2 6 4 9 5 SSW 1021,4 4,9 0 0,0
22.10.2019 06:00:00 11,5 11,5 11,2 10,6 12,3 13,2 7 4 11 6 SW 1021,5 3,7 0 0,0
22.10.2019 05:00:00 11,1 11,1 10,7 10,3 12,5 13,2 6 4 10 6 S 1021,1 3,3 0 0,0
22.10.2019 04:00:00 11,1 11,1 10,7 9,8 12,7 13,2 9 5 13 7 S 1021,1 2,8 0 0,0
22.10.2019 03:00:00 8,5 8,5 6,4 10,1 12,9 13,2 5 3 7 4 S 1021,0 0,1 0 0,0
22.10.2019 02:00:00 9,0 9,0 7,8 10,4 13,1 13,2 4 2 5 3 S 1021,1 0,2 0 0,0
22.10.2019 01:00:00 11,5 11,5 7,8 11,0 13,3 13,2 0 0 9 5 N 1020,9 0,7 0 0,0
22.10.2019 00:00:00 11,9 11,8 9,2 11,8 13,5 13,2 7 4 9 5 S 1020,7 2,1 0 0,0
21.10.2019 23:00:00 12,8 12,5 11,5 12,4 13,6 13,2 4 2 10 5 SW 1020,5 3,0 0 0,0
21.10.2019 22:00:00 13,1 12,7 11,6 13,1 13,7 13,2 5 3 11 6 SW 1020,3 2,8 0 0,0
21.10.2019 21:00:00 13,8 13,1 13,1 13,4 13,7 13,2 5 3 11 6 SSW 1019,9 3,6 0 0,0
21.10.2019 20:00:00 14,0 13,2 13,5 13,7 13,8 13,2 8 4 12 6 SW 1019,7 3,8 0 0,0
21.10.2019 19:00:00 14,0 13,0 13,6 14,0 13,9 13,2 8 5 14 8 SW 1019,0 3,7 0 0,0
21.10.2019 18:00:00 14,3 13,0 13,9 14,7 13,8 13,2 9 5 15 8 S 1018,1 4,1 0 0,0
21.10.2019 17:00:00 15,2 13,4 15,0 15,6 13,7 13,2 6 4 16 8 SW 1018,5 4,8 0 0,0
21.10.2019 16:00:00 16,2 13,5 16,4 16,6 13,4 13,2 9 5 15 8 WSW 1018,7 8 6 0,0
21.10.2019 15:00:00 16,5 13,3 17,9 17,0 13,1 13,2 6 4 16 9 SW 1017,9 8 32 0,0
21.10.2019 14:00:00 15,5 13,1 16,5 15,9 12,8 13,2 9 5 15 8 SSW 1018,2 8 17 0,0
21.10.2019 13:00:00 13,6 12,5 14,4 14,2 12,7 13,2 8 4 13 7 ENE 1017,5 5 0 0,0
21.10.2019 12:00:00 13,4 12,4 14,0 13,7 12,5 13,2 4 2 13 7 NNE 1017,9 5 0 0,0
21.10.2019 11:00:00 12,9 12,5 13,2 13,0 12,4 13,2 10 5 25 14 ENE 1017,1 3,8 0 0,0
21.10.2019 10:00:00 12,8 12,3 12,9 12,6 12,4 13,2 14 8 22 12 ENE 1016,6 4,1 0 0,0
21.10.2019 09:00:00 12,7 12,1 12,3 11,8 12,4 13,2 13 7 23 13 E 1015,6 4,6 0 0,0
21.10.2019 08:00:00 12,5 11,9 11,8 11,6 12,4 13,2 12 6 19 10 ENE 1015,5 6 0 0,0
21.10.2019 07:00:00 12,5 12,1 11,9 11,7 12,5 13,2 11 6 23 12 NE 1015,4 6 0 0,0
21.10.2019 06:00:00 12,6 12,3 12,0 11,6 12,5 13,2 12 7 27 15 NE 1014,5 4,9 0 0,0
21.10.2019 05:00:00 12,7 12,2 12,1 11,7 12,5 13,2 11 6 21 12 NE 1014,7 5 0 0,0
21.10.2019 04:00:00 12,5 12,3 11,8 11,6 12,6 13,2 8 4 15 8 NE 1014,4 4,8 0 0,0
21.10.2019 03:00:00 12,4 12,3 11,9 11,5 12,7 13,2 9 5 18 10 NE 1014,0 4,2 0 0,0
21.10.2019 02:00:00 12,5 12,3 12,0 11,7 12,8 13,2 9 5 17 9 NE 1013,8 4,7 0 0,0
21.10.2019 01:00:00 12,4 12,2 11,9 11,7 12,9 13,2 8 4 12 7 ENE 1013,6 5 0 0,0
21.10.2019 00:00:00 12,3 12,1 11,3 12,1 12,9 13,2 9 5 13 7 NE 1013,5 4,5 0 0,0
20.10.2019 23:00:00 12,6 12,1 12,2 12,3 13,0 13,2 7 4 10 5 ENE 1013,7 6 0 0,0
20.10.2019 22:00:00 12,7 12,1 12,1 12,5 13,1 13,2 5 3 9 5 N 1013,7 8 0 0,0
20.10.2019 21:00:00 12,6 12,0 11,9 12,8 13,2 13,2 6 3 12 7 NE 1013,0 11 0 0,0
20.10.2019 20:00:00 13,0 12,1 12,3 13,1 13,3 13,2 6 3 12 6 N 1012,9 9 0 0,0
20.10.2019 19:00:00 13,3 11,9 12,8 13,6 13,3 13,2 8 5 12 7 ENE 1012,3 10 0 0,0
20.10.2019 18:00:00 13,5 12,1 13,2 14,3 13,2 13,2 6 3 12 6 E 1012,4 12 1 0,0
20.10.2019 17:00:00 13,6 11,8 13,6 15,2 13,0 13,2 6 4 16 8 E 1012,1 15 24 0,0
20.10.2019 16:00:00 13,8 11,7 14,8 16,4 12,7 13,2 8 5 14 8 NE 1012,0 16 43 0,0
20.10.2019 15:00:00 14,6 12,2 17,7 15,8 12,3 13,3 8 5 13 7 NNE 1011,7 26 12 0,0
20.10.2019 14:00:00 14,2 11,5 15,6 14,9 12,0 13,3 8 4 10 6 ENE 1011,5 29 0 0,0
20.10.2019 13:00:00 14,5 11,5 15,3 14,2 11,8 13,3 5 3 13 7 S 1011,7 36 0 0,0
20.10.2019 12:00:00 13,8 10,9 14,8 13,4 11,5 13,3 9 5 15 8 S 1011,6 29 9 0,0
20.10.2019 11:00:00 12,7 10,5 12,6 12,1 11,4 13,3 9 5 16 9 S 1011,4 31 0 0,0
20.10.2019 10:00:00 11,8 10,5 12,0 11,0 11,3 13,3 10 5 15 8 S 1011,2 24 0 0,0
20.10.2019 09:00:00 11,1 9,9 10,8 10,3 11,3 13,3 12 6 18 10 S 1010,7 21 0 0,0
20.10.2019 08:00:00 11,1 9,7 10,6 10,0 11,4 13,3 12 6 19 11 S 1010,3 26 0 0,0
20.10.2019 07:00:00 10,6 9,6 10,2 9,7 11,4 13,3 10 5 16 8 S 1009,8 17 0 0,0
20.10.2019 06:00:00 10,1 9,4 9,3 9,4 11,5 13,3 11 6 18 10 S 1009,7 16 0 0,0
20.10.2019 05:00:00 10,2 9,3 9,3 9,5 11,6 13,3 13 7 18 10 S 1009,2 17 0 0,0
20.10.2019 04:00:00 10,6 9,6 9,5 9,8 11,7 13,3 11 6 16 9 S 1009,2 18 0 0,0
20.10.2019 03:00:00 11,0 9,8 10,1 10,3 11,8 13,3 11 6 18 10 S 1009,3 20 0 0,0
20.10.2019 02:00:00 11,3 10,1 10,9 10,3 11,8 13,3 12 7 18 10 S 1009,1 19 0 0,0
20.10.2019 01:00:00 10,9 9,8 10,0 9,9 12,0 13,3 14 7 23 12 S 1009,3 19 0 0,0
20.10.2019 00:00:00 11,0 9,8 9,8 10,0 12,1 13,3 12 7 24 13 S 1009,3 21 0 0,0
19.10.2019 23:00:00 11,1 9,9 10,0 10,2 12,2 13,3 16 8 27 15 SSE 1009,1 26 0 0,0
19.10.2019 22:00:00 11,3 9,8 10,2 10,4 12,4 13,3 11 6 24 13 SSE 1009,4 32 0 0,0
19.10.2019 21:00:00 11,8 10,0 10,6 10,8 12,5 13,3 16 9 26 14 S 1009,4 37 0 0,0
19.10.2019 20:00:00 11,9 10,4 10,7 11,3 12,6 13,3 15 8 23 12 SSE 1009,4 37 0 0,0
19.10.2019 19:00:00 12,6 10,5 11,5 11,9 12,6 13,3 16 8 26 14 SSE 1009,4 47 0 0,0
19.10.2019 18:00:00 13,3 10,4 12,3 12,7 12,6 13,3 16 8 27 15 SSE 1009,3 62 19 0,0
19.10.2019 17:00:00 14,3 10,7 14,7 13,4 12,5 13,3 14 8 27 15 SSE 1009,1 60 5 0,0
19.10.2019 16:00:00 14,5 10,2 14,7 13,9 12,3 13,3 16 9 27 15 SSE 1009,6 35 2 0,0
19.10.2019 15:00:00 14,5 9,6 14,8 13,8 12,1 13,3 16 9 27 14 S 1009,9 61 0 0,0
19.10.2019 14:00:00 13,7 9,2 13,8 13,7 11,8 13,3 14 8 28 15 S 1010,1 65 30 0,0
19.10.2019 13:00:00 13,9 9,5 14,8 13,0 11,5 13,3 17 9 28 15 S 1010,3 45 20 0,0
19.10.2019 12:00:00 12,4 9,1 12,9 12,0 11,4 13,3 16 9 23 13 S 1010,4 49 0 0,0
19.10.2019 11:00:00 11,4 8,7 11,9 10,8 11,3 13,3 15 8 24 13 S 1010,4 57 0 0,0
19.10.2019 10:00:00 9,8 7,9 9,8 9,6 11,3 13,3 13 7 19 11 S 1010,6 28 0 0,0
19.10.2019 09:00:00 8,9 7,3 8,6 8,9 11,4 13,3 12 6 21 11 S 1010,9 60 0 0,0
19.10.2019 08:00:00 8,8 7,1 8,2 8,6 11,6 13,3 12 7 19 10 S 1010,7 63 0 0,0
19.10.2019 07:00:00 8,4 6,7 7,7 8,5 11,7 13,3 13 7 21 11 S 1010,4 68 0 0,0
19.10.2019 06:00:00 8,5 6,6 7,8 8,6 11,9 13,3 14 7 22 12 S 1010,4 62 0 0,0
19.10.2019 05:00:00 8,7 6,8 7,8 8,5 12,1 13,3 12 7 18 10 S 1010,4 69 0 0,0
19.10.2019 04:00:00 8,6 6,7 7,4 8,6 12,4 13,3 11 6 19 10 S 1010,5 70 0 0,0
19.10.2019 03:00:00 8,7 6,9 7,6 8,8 12,7 13,3 12 6 16 9 S 1010,2 68 0 0,0
19.10.2019 02:00:00 8,8 6,9 7,5 9,1 13,0 13,3 12 6 18 10 S 1010,2 70 0 0,0
19.10.2019 01:00:00 8,9 7,3 7,6 9,5 13,3 13,3 11 6 15 8 S 1009,7 70 0 0,0
19.10.2019 00:00:00 9,1 7,5 7,4 10,2 13,6 13,3 10 5 16 9 S 1009,5 70 0 0,0
18.10.2019 23:00:00 10,5 7,6 8,8 11,1 13,8 13,3 12 7 19 10 SSW 1009,1 70 0 0,0
18.10.2019 22:00:00 11,3 8,9 9,7 12,4 14,0 13,3 10 5 16 9 SSW 1008,4 70 0 0,3
18.10.2019 21:00:00 12,1 8,9 10,7 12,9 14,1 13,3 14 8 51 28 SW 1008,1 10 0 0,7
18.10.2019 20:00:00 16,3 12,4 15,4 13,8 14,2 13,3 19 11 30 16 S 1006,6 70 0 0,0
18.10.2019 19:00:00 16,1 12,4 14,8 14,1 14,3 13,3 16 9 24 13 S 1006,8 70 0 0,0
18.10.2019 18:00:00 16,7 12,8 15,8 15,2 14,3 13,3 18 10 29 16 SSE 1006,6 69 18 0,0
18.10.2019 17:00:00 16,8 13,1 16,2 15,7 14,2 13,3 13 7 27 14 S 1007,2 62 0 0,0
18.10.2019 16:00:00 17,2 13,7 17,0 16,7 14,0 13,3 13 7 24 13 S 1007,5 42 31 0,0
18.10.2019 15:00:00 17,1 13,5 18,0 16,8 13,7 13,3 13 7 24 13 SSE 1008,0 21 30 0,0
18.10.2019 14:00:00 16,6 13,5 17,9 16,6 13,4 13,3 15 8 24 13 S 1008,9 19 42 0,0
18.10.2019 13:00:00 15,5 13,5 16,3 15,7 13,2 13,3 13 7 31 17 S 1009,6 18 10 0,0
18.10.2019 12:00:00 14,3 13,0 14,9 14,8 13,0 13,3 16 8 28 15 SSW 1010,2 11 0 0,0
18.10.2019 11:00:00 14,2 13,2 14,9 14,0 12,9 13,3 16 9 24 13 S 1010,0 11 1 0,0
18.10.2019 10:00:00 13,5 12,8 13,7 13,1 12,9 13,3 12 6 23 13 SSW 1010,5 11 0 0,0
18.10.2019 09:00:00 12,8 12,4 12,8 12,5 12,9 13,3 13 7 22 12 S 1010,4 12 0 0,0
18.10.2019 08:00:00 12,4 12,1 12,2 12,3 12,9 13,3 10 6 18 10 S 1010,6 10 0 0,1
18.10.2019 07:00:00 12,3 12,0 12,1 12,3 12,9 13,3 9 5 16 9 SSE 1010,5 11 0 0,8
18.10.2019 06:00:00 12,4 12,0 12,1 12,3 13,0 13,3 10 6 18 10 S 1011,0 13 0 1,6
18.10.2019 05:00:00 12,6 12,0 12,2 12,3 13,0 13,3 10 5 16 9 S 1011,5 3,9 0 1,2
18.10.2019 04:00:00 13,0 11,7 12,3 12,2 13,1 13,3 10 5 16 8 S 1011,6 17 0 0,0
18.10.2019 03:00:00 13,2 11,8 12,7 12,1 13,2 13,3 11 6 16 9 SSE 1011,8 33 0 0,0
18.10.2019 02:00:00 12,6 11,5 11,6 12,0 13,3 13,3 9 5 12 7 SSE 1012,3 35 0 0,0
18.10.2019 01:00:00 13,2 11,6 11,9 12,7 13,3 13,3 9 5 16 8 S 1012,5 39 0 0,0
18.10.2019 00:00:00 14,2 12,0 13,6 13,0 13,4 13,3 9 5 15 8 S 1012,5 43 0 0,0
17.10.2019 23:00:00 14,4 12,0 13,9 13,1 13,4 13,3 10 6 18 10 S 1012,8 45 0 0,0
17.10.2019 22:00:00 14,6 11,9 14,1 13,3 13,5 13,3 11 6 18 10 S 1012,9 46 0 0,0
17.10.2019 21:00:00 14,6 12,2 14,1 13,5 13,5 13,3 7 4 11 6 S 1012,9 38 0 0,0
17.10.2019 20:00:00 14,7 12,5 13,8 13,7 13,5 13,3 8 4 22 12 SW 1012,9 35 0 0,0
17.10.2019 19:00:00 14,9 12,3 14,4 13,9 13,5 13,3 9 5 16 9 S 1012,6 45 0 0,0
17.10.2019 18:00:00 15,4 12,4 14,9 14,5 13,5 13,3 11 6 16 9 SSW 1012,5 49 0 0,0
17.10.2019 17:00:00 16,0 12,5 15,7 15,1 13,3 13,3 8 4 17 9 SW 1012,2 65 0 0,0
17.10.2019 16:00:00 16,2 12,5 16,1 15,4 13,1 13,3 11 6 26 14 SW 1012,0 49 0 0,0
17.10.2019 15:00:00 15,9 11,7 15,9 16,1 12,8 13,3 13 7 25 14 SSW 1011,6 44 31 0,0
17.10.2019 14:00:00 15,7 11,7 16,0 15,3 12,5 13,3 14 8 31 17 SSW 1011,6 49 15 0,0
17.10.2019 13:00:00 15,7 11,3 16,4 14,9 12,2 13,3 20 11 34 18 SSW 1011,5 32 21 0,0
17.10.2019 12:00:00 15,3 11,7 16,9 14,1 12,0 13,3 15 8 26 14 SSW 1011,6 36 21 0,0
17.10.2019 11:00:00 13,6 11,7 13,7 12,9 11,8 13,4 15 8 22 12 S 1011,6 39 0 0,0
17.10.2019 10:00:00 12,5 11,7 12,4 11,8 11,7 13,4 12 6 21 12 S 1011,3 22 0 0,2
17.10.2019 09:00:00 12,0 11,1 11,9 11,2 11,7 13,4 12 6 19 10 S 1011,1 16 0 0,0
17.10.2019 08:00:00 11,3 10,7 10,9 10,5 11,7 13,4 11 6 20 11 S 1010,6 18 0 0,0
17.10.2019 07:00:00 10,8 10,3 10,4 10,1 11,7 13,4 14 7 20 11 S 1010,6 17 0 0,0
17.10.2019 06:00:00 10,3 9,8 10,0 9,9 11,8 13,4 14 7 21 11 S 1010,7 15 0 0,0
17.10.2019 05:00:00 9,6 9,2 9,4 9,5 11,9 13,4 16 8 21 12 S 1010,8 14 0 0,0
17.10.2019 04:00:00 9,0 8,7 8,2 9,0 12,1 13,4 13 7 19 10 S 1010,8 10 0 0,0
17.10.2019 03:00:00 9,3 9,0 8,4 9,3 12,3 13,4 14 7 19 10 S 1010,9 8 0 0,0
17.10.2019 02:00:00 9,5 9,2 8,5 9,7 12,5 13,4 10 6 17 9 SSW 1010,8 7 0 0,0
17.10.2019 01:00:00 9,7 9,3 8,6 10,2 12,7 13,4 9 5 14 7 SSW 1010,5 9 0 0,0
17.10.2019 00:00:00 10,6 9,8 9,3 10,9 12,9 13,4 10 5 20 11 SSW 1010,3 13 0 0,0
16.10.2019 23:00:00 11,6 10,5 10,6 11,7 12,9 13,4 15 8 27 15 SW 1009,9 14 0 0,0
16.10.2019 22:00:00 12,7 11,4 12,2 12,3 13,0 13,4 19 10 30 16 WSW 1009,6 12 0 0,0
16.10.2019 21:00:00 12,7 11,8 12,4 12,4 13,0 13,4 18 10 31 17 WSW 1008,9 11 0 0,0
16.10.2019 20:00:00 12,5 11,7 12,0 12,5 13,0 13,4 21 12 37 20 WSW 1008,5 18 0 1,0
16.10.2019 19:00:00 12,8 12,0 12,4 12,8 13,0 13,4 23 12 40 22 WSW 1007,8 10 0 1,4
16.10.2019 18:00:00 13,3 12,8 12,9 13,0 13,0 13,4 20 11 31 17 W 1007,0 5 0 3,0
16.10.2019 17:00:00 13,4 13,1 13,2 13,1 13,0 13,3 15 8 27 15 WSW 1006,4 8 0 2,4
16.10.2019 16:00:00 13,1 12,7 12,9 13,1 12,9 13,3 10 6 21 12 WSW 1006,1 6 0 0,9
16.10.2019 15:00:00 13,2 12,5 12,9 13,3 12,8 13,3 15 8 24 13 WSW 1005,8 22 0 0,0
16.10.2019 14:00:00 13,4 13,1 13,5 13,2 12,7 13,3 15 8 22 12 SW 1005,5 10 0 2,5
16.10.2019 13:00:00 12,8 12,8 12,9 12,8 12,6 13,3 10 5 24 13 W 1004,9 1,1 0 0,3
16.10.2019 12:00:00 12,1 12,1 12,3 12,6 12,6 13,3 14 7 26 14 SW 1004,9 1,3 0 0,0
16.10.2019 11:00:00 11,9 11,9 12,2 12,8 12,4 13,3 14 7 23 13 SW 1004,4 1,1 0 0,0

tt = Température de l'air
td = dewpoint
tt 5cm = Température de l'air 5cm
tt -5cm = Température de l'air -5cm
tt -20cm = Température de l'air -20cm
tt -100cm = Température de l'air -100cm
ff = Vitesse du vent
fx = gusts
dd = Direction du vent
ppp = reduced air pressure
vv = visibility
sd = Ensoleillement
rr = Quantités de précipitations

stations d'obs. à proximité